| time (UTC) | temp C | wind direction | speed KPH | gust KPH | rain 1hr cm | rain 24hr cm | rain mn cm | humidity % | barometer mb |
| 20260508091022 | 12 | 146 | 1.6 | 8.0 | 0.00 | 0.03 | 0.00 | 89 | 1017.0 |
| 20260508090522 | 11 | 0 | 3.2 | 8.0 | 0.00 | 0.03 | 0.00 | 90 | 1017.0 |
| 20260508090108 | 11 | 152 | 3.2 | 6.4 | 0.00 | 0.03 | 0.00 | 90 | 1017.0 |
| 20260508085521 | 11 | 138 | 1.6 | 6.4 | 0.00 | 0.03 | 0.00 | 90 | 1017.1 |
| 20260508085021 | 11 | 138 | 1.6 | 6.4 | 0.00 | 0.03 | 0.00 | 90 | 1016.8 |
| 20260508084545 | 11 | 138 | 1.6 | 9.7 | 0.00 | 0.03 | 0.00 | 91 | 1016.8 |
| 20260508084023 | 10 | 138 | 0.0 | 9.7 | 0.00 | 0.03 | 0.00 | 92 | 1016.8 |
| 20260508083524 | 10 | 138 | 3.2 | 9.7 | 0.00 | 0.03 | 0.00 | 92 | 1016.8 |
| 20260508083041 | 10 | 133 | 1.6 | 6.4 | 0.00 | 0.03 | 0.00 | 92 | 1016.8 |
| 20260508082522 | 10 | 126 | 0.0 | 3.2 | 0.00 | 0.03 | 0.00 | 93 | 1016.7 |
| 20260508082022 | 10 | 0 | 0.0 | 6.4 | 0.00 | 0.03 | 0.00 | 93 | 1016.7 |
| 20260508081553 | 10 | 124 | 0.0 | 6.4 | 0.00 | 0.03 | 0.00 | 93 | 1016.6 |
| 20260508081022 | 10 | 124 | 1.6 | 6.4 | 0.00 | 0.03 | 0.00 | 93 | 1016.6 |
| 20260508080527 | 9 | 124 | 1.6 | 8.0 | 0.00 | 0.03 | 0.00 | 93 | 1016.6 |
| 20260508080037 | 9 | 124 | 3.2 | 8.0 | 0.00 | 0.03 | 0.00 | 93 | 1016.6 |
| 20260508075523 | 9 | 124 | 1.6 | 4.8 | 0.00 | 0.03 | 0.00 | 93 | 1016.6 |
| 20260508075020 | 9 | 0 | 1.6 | 6.4 | 0.00 | 0.03 | 0.00 | 93 | 1016.6 |
| 20260508074535 | 9 | 0 | 3.2 | 6.4 | 0.00 | 0.03 | 0.00 | 93 | 1016.6 |
| 20260508074020 | 9 | 137 | 1.6 | 6.4 | 0.00 | 0.03 | 0.00 | 93 | 1016.5 |
| 20260508073518 | 9 | 139 | 3.2 | 8.0 | 0.00 | 0.03 | 0.00 | 94 | 1016.5 |
| 20260508073101 | 9 | 140 | 3.2 | 8.0 | 0.00 | 0.03 | 0.00 | 94 | 1016.5 |
| 20260508072518 | 9 | 141 | 3.2 | 8.0 | 0.00 | 0.03 | 0.00 | 94 | 1016.5 |
| 20260508072018 | 9 | 144 | 3.2 | 8.0 | 0.00 | 0.03 | 0.00 | 94 | 1016.5 |
| 20260508071541 | 8 | 154 | 1.6 | 8.0 | 0.00 | 0.03 | 0.00 | 95 | 1016.5 |
| 20260508071022 | 8 | 160 | 1.6 | 8.0 | 0.00 | 0.03 | 0.00 | 95 | 1016.5 |
| 20260508070518 | 8 | 165 | 1.6 | 8.0 | 0.00 | 0.03 | 0.00 | 95 | 1016.5 |
| 20260508070046 | 8 | 166 | 3.2 | 8.0 | 0.00 | 0.03 | 0.00 | 95 | 1016.3 |
| 20260508065519 | 8 | 168 | 1.6 | 6.4 | 0.00 | 0.03 | 0.00 | 95 | 1016.4 |
| 20260508065021 | 8 | 169 | 3.2 | 6.4 | 0.00 | 0.03 | 0.00 | 95 | 1016.4 |
| 20260508064537 | 8 | 171 | 1.6 | 8.0 | 0.00 | 0.03 | 0.00 | 95 | 1016.3 |
| 20260508064018 | 8 | 0 | 1.6 | 8.0 | 0.00 | 0.03 | 0.00 | 95 | 1016.3 |
| 20260508063518 | 8 | 180 | 1.6 | 8.0 | 0.00 | 0.03 | 0.00 | 96 | 1016.3 |
| 20260508063038 | 8 | 193 | 1.6 | 8.0 | 0.00 | 0.03 | 0.00 | 95 | 1016.3 |
| 20260508062521 | 8 | 170 | 1.6 | 8.0 | 0.00 | 0.03 | 0.00 | 96 | 1016.2 |
| 20260508062019 | 7 | 180 | 1.6 | 11.3 | 0.00 | 0.03 | 0.00 | 96 | 1016.2 |
| 20260508061545 | 7 | 125 | 3.2 | 11.3 | 0.00 | 0.03 | 0.00 | 96 | 1016.1 |
| 20260508061021 | 7 | 122 | 3.2 | 8.0 | 0.00 | 0.03 | 0.00 | 96 | 1016.0 |
| 20260508060521 | 7 | 120 | 3.2 | 11.3 | 0.00 | 0.03 | 0.00 | 96 | 1016.0 |
| 20260508060059 | 7 | 119 | 3.2 | 11.3 | 0.00 | 0.03 | 0.00 | 96 | 1015.9 |
| 20260508055518 | 7 | 109 | 1.6 | 4.8 | 0.00 | 0.03 | 0.00 | 96 | 1015.9 |
| 20260508055018 | 7 | 102 | 1.6 | 6.4 | 0.00 | 0.03 | 0.00 | 96 | 1015.9 |
| 20260508054542 | 7 | 101 | 1.6 | 6.4 | 0.00 | 0.03 | 0.00 | 96 | 1015.9 |
| 20260508054021 | 7 | 0 | 0.0 | 6.4 | 0.00 | 0.03 | 0.00 | 96 | 1015.8 |
| 20260508053518 | 7 | 0 | 0.0 | 6.4 | 0.00 | 0.03 | 0.00 | 96 | 1015.8 |
| 20260508053040 | 7 | 81 | 1.6 | 4.8 | 0.00 | 0.03 | 0.00 | 96 | 1015.8 |
| 20260508052518 | 6 | 149 | 0.0 | 4.8 | 0.00 | 0.03 | 0.00 | 95 | 1015.7 |
| 20260508052021 | 6 | 160 | 0.0 | 3.2 | 0.00 | 0.03 | 0.00 | 95 | 1015.7 |
| 20260508051555 | 6 | 203 | 0.0 | 3.2 | 0.00 | 0.03 | 0.00 | 95 | 1015.6 |
| 20260508051025 | 6 | 0 | 0.0 | 3.2 | 0.00 | 0.03 | 0.00 | 95 | 1015.6 |
| 20260508050518 | 6 | 0 | 0.0 | 4.8 | 0.00 | 0.03 | 0.00 | 96 | 1015.6 |
| 20260508050036 | 6 | 211 | 0.0 | 4.8 | 0.00 | 0.03 | 0.00 | 96 | 1015.6 |
| 20260508045517 | 6 | 0 | 1.6 | 4.8 | 0.00 | 0.03 | 0.00 | 95 | 1015.6 |
| 20260508045017 | 6 | 110 | 1.6 | 6.4 | 0.00 | 0.03 | 0.00 | 95 | 1015.6 |
| 20260508044548 | 6 | 109 | 1.6 | 6.4 | 0.00 | 0.03 | 0.00 | 95 | 1015.6 |
| 20260508044019 | 6 | 110 | 1.6 | 6.4 | 0.00 | 0.03 | 0.00 | 95 | 1015.7 |
| 20260508043518 | 6 | 111 | 1.6 | 4.8 | 0.00 | 0.03 | 0.00 | 95 | 1015.6 |
| 20260508043040 | 6 | 110 | 0.0 | 4.8 | 0.00 | 0.03 | 0.00 | 95 | 1015.5 |
| 20260508042518 | 6 | 110 | 0.0 | 4.8 | 0.00 | 0.03 | 0.00 | 95 | 1015.5 |
| 20260508042018 | 6 | 0 | 1.6 | 4.8 | 0.00 | 0.03 | 0.00 | 95 | 1015.5 |
| 20260508041540 | 6 | 147 | 1.6 | 4.8 | 0.00 | 0.03 | 0.00 | 95 | 1015.5 |
| 20260508041019 | 6 | 147 | 1.6 | 4.8 | 0.00 | 0.03 | 0.00 | 95 | 1015.5 |
| 20260508040519 | 6 | 147 | 1.6 | 4.8 | 0.00 | 0.03 | 0.00 | 95 | 1015.4 |
| 20260508040048 | 6 | 0 | 0.0 | 4.8 | 0.00 | 0.03 | 0.00 | 95 | 1015.5 |
| 20260508035519 | 6 | 147 | 0.0 | 3.2 | 0.00 | 0.03 | 0.00 | 95 | 1015.6 |
| 20260508035018 | 6 | 0 | 0.0 | 0.0 | 0.00 | 0.03 | 0.00 | 95 | 1015.5 |
| 20260508034544 | 6 | 0 | 0.0 | 0.0 | 0.00 | 0.03 | 0.00 | 95 | 1015.5 |
| 20260508034019 | 6 | 0 | 0.0 | 0.0 | 0.00 | 0.03 | 0.00 | 94 | 1015.5 |
| 20260508033523 | 6 | 0 | 0.0 | 0.0 | 0.00 | 0.03 | 0.00 | 95 | 1015.6 |
| 20260508033047 | 6 | 0 | 0.0 | 0.0 | 0.00 | 0.03 | 0.00 | 95 | 1015.5 |
| 20260508032521 | 6 | 0 | 0.0 | 0.0 | 0.00 | 0.03 | 0.00 | 94 | 1015.5 |
| 20260508032020 | 6 | 0 | 0.0 | 0.0 | 0.00 | 0.03 | 0.00 | 94 | 1015.5 |
| 20260508031553 | 6 | 0 | 0.0 | 0.0 | 0.00 | 0.03 | 0.00 | 94 | 1015.5 |
| 20260508031019 | 6 | 0 | 0.0 | 0.0 | 0.00 | 0.03 | 0.00 | 94 | 1015.5 |
| 20260508030518 | 6 | 0 | 0.0 | 0.0 | 0.00 | 0.03 | 0.00 | 94 | 1015.4 |
| 20260508030041 | 6 | 0 | 0.0 | 0.0 | 0.00 | 0.03 | 0.00 | 94 | 1015.4 |
| 20260508025520 | 6 | 0 | 0.0 | 0.0 | 0.00 | 0.03 | 0.00 | 94 | 1015.4 |
| 20260508025021 | 6 | 0 | 0.0 | 3.2 | 0.00 | 0.03 | 0.00 | 94 | 1015.4 |
| 20260508024559 | 6 | 0 | 0.0 | 3.2 | 0.00 | 0.03 | 0.00 | 94 | 1015.4 |
| 20260508024019 | 6 | 0 | 0.0 | 3.2 | 0.00 | 0.03 | 0.00 | 94 | 1015.4 |
| 20260508023519 | 6 | 0 | 0.0 | 0.0 | 0.00 | 0.03 | 0.00 | 94 | 1015.4 |
| 20260508023038 | 6 | 0 | 0.0 | 1.6 | 0.00 | 0.03 | 0.00 | 94 | 1015.5 |
| 20260508022519 | 6 | 0 | 0.0 | 1.6 | 0.00 | 0.03 | 0.00 | 94 | 1015.5 |
| 20260508022019 | 6 | 0 | 0.0 | 4.8 | 0.00 | 0.03 | 0.00 | 94 | 1015.5 |
| 20260508021547 | 6 | 0 | 0.0 | 6.4 | 0.00 | 0.03 | 0.00 | 94 | 1015.5 |
| 20260508021018 | 6 | 0 | 1.6 | 6.4 | 0.00 | 0.03 | 0.00 | 94 | 1015.4 |
| 20260508020518 | 6 | 148 | 1.6 | 4.8 | 0.00 | 0.03 | 0.00 | 94 | 1015.3 |
| 20260508020050 | 6 | 148 | 1.6 | 4.8 | 0.00 | 0.03 | 0.00 | 94 | 1015.3 |
| 20260508015518 | 6 | 0 | 0.0 | 3.2 | 0.00 | 0.03 | 0.00 | 93 | 1015.4 |
| 20260508015019 | 6 | 0 | 0.0 | 1.6 | 0.00 | 0.03 | 0.00 | 94 | 1015.4 |
| 20260508014549 | 6 | 0 | 0.0 | 3.2 | 0.00 | 0.03 | 0.00 | 94 | 1015.4 |
| 20260508014018 | 6 | 0 | 0.0 | 3.2 | 0.00 | 0.03 | 0.00 | 94 | 1015.4 |
| 20260508013521 | 6 | 0 | 1.6 | 3.2 | 0.00 | 0.03 | 0.00 | 94 | 1015.5 |
| 20260508013040 | 6 | 0 | 0.0 | 0.0 | 0.00 | 0.03 | 0.00 | 94 | 1015.4 |
| 20260508012518 | 7 | 0 | 0.0 | 1.6 | 0.00 | 0.03 | 0.00 | 93 | 1015.2 |
| 20260508012018 | 7 | 0 | 0.0 | 3.2 | 0.00 | 0.03 | 0.00 | 93 | 1015.2 |
| 20260508011534 | 7 | 0 | 0.0 | 3.2 | 0.00 | 0.03 | 0.00 | 93 | 1015.3 |
| 20260508011019 | 7 | 0 | 0.0 | 4.8 | 0.00 | 0.03 | 0.00 | 93 | 1015.3 |
| 20260508010518 | 7 | 0 | 0.0 | 6.4 | 0.00 | 0.03 | 0.00 | 94 | 1015.3 |
| 20260508010051 | 7 | 148 | 1.6 | 6.4 | 0.00 | 0.03 | 0.00 | 94 | 1015.4 |
| 20260508005518 | 7 | 148 | 1.6 | 6.4 | 0.00 | 0.03 | 0.00 | 94 | 1015.3 |
| 20260508005019 | 7 | 149 | 1.6 | 6.4 | 0.00 | 0.03 | 0.00 | 94 | 1015.3 |
| 20260508004545 | 7 | 148 | 3.2 | 6.4 | 0.00 | 0.03 | 0.00 | 94 | 1015.3 |
| 20260508004021 | 7 | 0 | 0.0 | 4.8 | 0.00 | 0.03 | 0.00 | 94 | 1015.3 |
| 20260508003519 | 7 | 0 | 0.0 | 3.2 | 0.00 | 0.03 | 0.00 | 94 | 1015.4 |
| 20260508003034 | 7 | 0 | 0.0 | 3.2 | 0.00 | 0.03 | 0.00 | 94 | 1015.3 |
| 20260508002519 | 7 | 149 | 0.0 | 4.8 | 0.00 | 0.03 | 0.00 | 94 | 1015.3 |
| 20260508002022 | 7 | 0 | 1.6 | 4.8 | 0.00 | 0.03 | 0.00 | 94 | 1015.4 |
| 20260508001546 | 7 | 0 | 0.0 | 1.6 | 0.00 | 0.03 | 0.00 | 94 | 1015.4 |
| 20260508001018 | 7 | 0 | 0.0 | 1.6 | 0.00 | 0.03 | 0.00 | 94 | 1015.4 |
| 20260508000521 | 7 | 0 | 0.0 | 1.6 | 0.00 | 0.03 | 0.00 | 94 | 1015.5 |
| 20260508000042 | 7 | 0 | 0.0 | 0.0 | 0.00 | 0.03 | 0.00 | 93 | 1015.5 |
| 20260507235521 | 7 | 0 | 0.0 | 0.0 | 0.00 | 0.03 | 0.00 | 93 | 1015.6 |
| 20260507235018 | 7 | 0 | 0.0 | 0.0 | 0.00 | 0.03 | 0.00 | 93 | 1015.4 |
| 20260507234541 | 7 | 0 | 0.0 | 0.0 | 0.00 | 0.03 | 0.00 | 93 | 1015.5 |
| 20260507234018 | 7 | 0 | 0.0 | 0.0 | 0.00 | 0.03 | 0.00 | 93 | 1015.5 |
| 20260507233522 | 7 | 0 | 0.0 | 0.0 | 0.00 | 0.03 | 0.00 | 93 | 1015.4 |
| 20260507233040 | 7 | 0 | 0.0 | 0.0 | 0.00 | 0.03 | 0.00 | 93 | 1015.5 |
| 20260507232519 | 7 | 0 | 0.0 | 0.0 | 0.00 | 0.03 | 0.00 | 93 | 1015.5 |
| 20260507232018 | 7 | 0 | 0.0 | 3.2 | 0.00 | 0.03 | 0.00 | 93 | 1015.4 |
| 20260507231536 | 7 | 0 | 0.0 | 3.2 | 0.00 | 0.03 | 0.00 | 93 | 1015.5 |
| 20260507231019 | 7 | 149 | 0.0 | 3.2 | 0.00 | 0.03 | 0.00 | 93 | 1015.5 |
| 20260507230519 | 8 | 0 | 0.0 | 3.2 | 0.00 | 0.03 | 0.00 | 93 | 1015.4 |
| 20260507230055 | 8 | 0 | 0.0 | 3.2 | 0.00 | 0.03 | 0.00 | 93 | 1015.5 |
| 20260507225519 | 8 | 149 | 0.0 | 1.6 | 0.00 | 0.03 | 0.03 | 93 | 1015.4 |
| 20260507225019 | 8 | 0 | 0.0 | 4.8 | 0.00 | 0.03 | 0.03 | 93 | 1015.5 |
| 20260507224542 | 8 | 0 | 0.0 | 4.8 | 0.00 | 0.03 | 0.03 | 93 | 1015.5 |
| 20260507224020 | 8 | 149 | 1.6 | 4.8 | 0.00 | 0.03 | 0.03 | 93 | 1015.5 |
| 20260507223519 | 8 | 0 | 0.0 | 1.6 | 0.00 | 0.03 | 0.03 | 93 | 1015.5 |
| 20260507223040 | 8 | 0 | 0.0 | 3.2 | 0.00 | 0.03 | 0.03 | 92 | 1015.4 |
| 20260507222522 | 8 | 0 | 0.0 | 3.2 | 0.00 | 0.03 | 0.03 | 92 | 1015.4 |
| 20260507222023 | 8 | 149 | 0.0 | 3.2 | 0.00 | 0.03 | 0.03 | 92 | 1015.4 |
| 20260507221540 | 8 | 0 | 0.0 | 3.2 | 0.00 | 0.03 | 0.03 | 91 | 1015.4 |
| 20260507221025 | 8 | 0 | 0.0 | 4.8 | 0.00 | 0.03 | 0.03 | 91 | 1015.3 |
| 20260507220524 | 8 | 0 | 1.6 | 4.8 | 0.00 | 0.03 | 0.03 | 91 | 1015.3 |
| 20260507220045 | 8 | 0 | 0.0 | 0.0 | 0.00 | 0.03 | 0.03 | 91 | 1015.3 |
| 20260507215522 | 8 | 0 | 0.0 | 0.0 | 0.00 | 0.03 | 0.03 | 90 | 1015.3 |
| 20260507215021 | 8 | 0 | 0.0 | 0.0 | 0.00 | 0.03 | 0.03 | 90 | 1015.2 |
| 20260507214543 | 8 | 0 | 0.0 | 0.0 | 0.00 | 0.03 | 0.03 | 90 | 1015.2 |
| 20260507214023 | 8 | 0 | 0.0 | 0.0 | 0.00 | 0.03 | 0.03 | 90 | 1015.2 |
| 20260507213521 | 8 | 0 | 0.0 | 0.0 | 0.00 | 0.03 | 0.03 | 90 | 1015.2 |
| 20260507213043 | 8 | 0 | 0.0 | 1.6 | 0.00 | 0.03 | 0.03 | 89 | 1015.1 |
| 20260507212521 | 8 | 0 | 0.0 | 4.8 | 0.00 | 0.03 | 0.03 | 89 | 1015.3 |
| 20260507212021 | 9 | 0 | 0.0 | 4.8 | 0.00 | 0.03 | 0.03 | 88 | 1015.2 |
| 20260507211536 | 9 | 0 | 0.0 | 4.8 | 0.00 | 0.03 | 0.03 | 88 | 1015.2 |
| 20260507211025 | 9 | 0 | 0.0 | 3.2 | 0.00 | 0.03 | 0.03 | 88 | 1015.2 |
| 20260507210526 | 9 | 149 | 0.0 | 4.8 | 0.00 | 0.03 | 0.03 | 87 | 1015.1 |
| 20260507210039 | 10 | 0 | 0.0 | 4.8 | 0.00 | 0.03 | 0.03 | 87 | 1015.1 |
| 20260507205522 | 10 | 0 | 1.6 | 4.8 | 0.00 | 0.03 | 0.03 | 87 | 1015.0 |
| 20260507205021 | 10 | 0 | 1.6 | 4.8 | 0.00 | 0.03 | 0.03 | 87 | 1014.8 |
| 20260507204542 | 10 | 149 | 1.6 | 4.8 | 0.00 | 0.03 | 0.03 | 87 | 1014.8 |
| 20260507204022 | 10 | 149 | 1.6 | 4.8 | 0.00 | 0.03 | 0.03 | 87 | 1014.8 |
| 20260507203522 | 10 | 149 | 1.6 | 4.8 | 0.00 | 0.03 | 0.03 | 86 | 1014.7 |
| 20260507203108 | 10 | 0 | 0.0 | 3.2 | 0.00 | 0.03 | 0.03 | 86 | 1014.7 |
| 20260507202524 | 11 | 0 | 0.0 | 3.2 | 0.00 | 0.03 | 0.03 | 87 | 1014.8 |
| 20260507202021 | 11 | 0 | 0.0 | 3.2 | 0.00 | 0.03 | 0.03 | 87 | 1014.6 |
| 20260507201540 | 11 | 149 | 0.0 | 3.2 | 0.00 | 0.03 | 0.03 | 86 | 1014.6 |
| 20260507201019 | 11 | 0 | 0.0 | 4.8 | 0.00 | 0.03 | 0.03 | 86 | 1014.6 |
| 20260507200526 | 11 | 149 | 1.6 | 6.4 | 0.00 | 0.03 | 0.03 | 86 | 1014.5 |
| 20260507200037 | 11 | 149 | 3.2 | 6.4 | 0.00 | 0.03 | 0.03 | 86 | 1014.5 |
| 20260507195521 | 11 | 149 | 0.0 | 9.7 | 0.00 | 0.03 | 0.03 | 87 | 1014.4 |
| 20260507195019 | 11 | 149 | 3.2 | 9.7 | 0.00 | 0.03 | 0.03 | 87 | 1014.4 |
| 20260507194548 | 11 | 149 | 3.2 | 8.0 | 0.00 | 0.03 | 0.03 | 87 | 1014.3 |
| 20260507194026 | 11 | 149 | 1.6 | 8.0 | 0.00 | 0.03 | 0.03 | 87 | 1014.3 |
| 20260507193522 | 11 | 149 | 1.6 | 8.0 | 0.00 | 0.03 | 0.03 | 86 | 1014.3 |
| 20260507193042 | 11 | 153 | 1.6 | 8.0 | 0.00 | 0.03 | 0.03 | 86 | 1014.3 |
| 20260507192521 | 11 | 153 | 1.6 | 9.7 | 0.00 | 0.03 | 0.03 | 86 | 1014.2 |
| 20260507192021 | 12 | 153 | 3.2 | 9.7 | 0.00 | 0.03 | 0.03 | 87 | 1014.3 |
| 20260507191545 | 12 | 158 | 3.2 | 9.7 | 0.00 | 0.03 | 0.03 | 87 | 1014.2 |
| 20260507191021 | 12 | 160 | 3.2 | 6.4 | 0.00 | 0.03 | 0.03 | 87 | 1014.3 |
| 20260507190521 | 12 | 0 | 0.0 | 1.6 | 0.00 | 0.03 | 0.03 | 86 | 1014.3 |
| 20260507190046 | 12 | 0 | 0.0 | 3.2 | 0.00 | 0.03 | 0.03 | 86 | 1014.2 |
| 20260507185521 | 12 | 0 | 0.0 | 3.2 | 0.00 | 0.03 | 0.03 | 86 | 1014.2 |
| 20260507185021 | 12 | 0 | 0.0 | 0.0 | 0.00 | 0.03 | 0.03 | 87 | 1014.2 |
| 20260507184535 | 12 | 0 | 0.0 | 0.0 | 0.03 | 0.03 | 0.03 | 87 | 1014.1 |
| 20260507184021 | 12 | 0 | 0.0 | 0.0 | 0.03 | 0.03 | 0.03 | 86 | 1014.0 |
| 20260507183521 | 12 | 0 | 0.0 | 0.0 | 0.03 | 0.03 | 0.03 | 86 | 1014.0 |
| 20260507183041 | 12 | 0 | 0.0 | 0.0 | 0.03 | 0.03 | 0.03 | 86 | 1014.0 |
| 20260507182522 | 12 | 0 | 0.0 | 0.0 | 0.03 | 0.03 | 0.03 | 86 | 1014.0 |
| 20260507182020 | 12 | 0 | 0.0 | 3.2 | 0.03 | 0.03 | 0.03 | 85 | 1013.9 |
| 20260507181543 | 12 | 0 | 0.0 | 3.2 | 0.03 | 0.03 | 0.03 | 84 | 1014.0 |
| 20260507181022 | 12 | 160 | 0.0 | 4.8 | 0.03 | 0.03 | 0.03 | 83 | 1013.9 |
| 20260507180520 | 12 | 0 | 0.0 | 4.8 | 0.03 | 0.03 | 0.03 | 82 | 1013.9 |
| 20260507180042 | 12 | 160 | 1.6 | 9.7 | 0.00 | 0.00 | 0.00 | 80 | 1013.8 |
| 20260507175522 | 12 | 161 | 1.6 | 9.7 | 0.00 | 0.00 | 0.00 | 78 | 1013.8 |
| 20260507175023 | 13 | 161 | 3.2 | 9.7 | 0.00 | 0.00 | 0.00 | 77 | 1013.8 |
| 20260507174543 | 13 | 154 | 0.0 | 6.4 | 0.00 | 0.00 | 0.00 | 75 | 1013.9 |
| 20260507174024 | 13 | 154 | 3.2 | 8.0 | 0.00 | 0.00 | 0.00 | 74 | 1013.8 |
| 20260507173519 | 13 | 0 | 1.6 | 8.0 | 0.00 | 0.00 | 0.00 | 72 | 1013.8 |
| 20260507173058 | 13 | 154 | 3.2 | 8.0 | 0.00 | 0.00 | 0.00 | 71 | 1013.8 |
| 20260507172518 | 13 | 154 | 4.8 | 8.0 | 0.00 | 0.00 | 0.00 | 70 | 1013.8 |
| 20260507172020 | 13 | 138 | 1.6 | 8.0 | 0.00 | 0.00 | 0.00 | 68 | 1013.7 |
| 20260507171543 | 13 | 138 | 3.2 | 8.0 | 0.00 | 0.00 | 0.00 | 68 | 1013.7 |
| 20260507171022 | 13 | 139 | 3.2 | 12.9 | 0.00 | 0.00 | 0.00 | 68 | 1013.7 |
| 20260507170521 | 13 | 139 | 3.2 | 12.9 | 0.00 | 0.00 | 0.00 | 68 | 1013.7 |
| 20260507170042 | 13 | 138 | 3.2 | 14.5 | 0.00 | 0.00 | 0.00 | 67 | 1013.7 |
| 20260507165522 | 13 | 143 | 4.8 | 14.5 | 0.00 | 0.00 | 0.00 | 67 | 1013.8 |
| 20260507165022 | 14 | 143 | 4.8 | 16.1 | 0.00 | 0.00 | 0.00 | 68 | 1013.7 |
| 20260507164541 | 14 | 151 | 4.8 | 16.1 | 0.00 | 0.00 | 0.00 | 67 | 1013.8 |
| 20260507164023 | 14 | 158 | 4.8 | 16.1 | 0.00 | 0.00 | 0.00 | 67 | 1013.8 |
| 20260507163524 | 14 | 148 | 6.4 | 16.1 | 0.00 | 0.00 | 0.00 | 66 | 1013.7 |
| 20260507163040 | 14 | 147 | 3.2 | 16.1 | 0.00 | 0.00 | 0.00 | 66 | 1013.7 |
| 20260507162528 | 14 | 133 | 6.4 | 16.1 | 0.00 | 0.00 | 0.00 | 66 | 1013.7 |
| 20260507162020 | 14 | 138 | 6.4 | 16.1 | 0.00 | 0.00 | 0.00 | 66 | 1013.7 |
| 20260507161543 | 14 | 148 | 4.8 | 19.3 | 0.00 | 0.00 | 0.00 | 66 | 1013.7 |
| 20260507161020 | 14 | 147 | 4.8 | 19.3 | 0.00 | 0.00 | 0.00 | 66 | 1013.8 |
| 20260507160518 | 14 | 155 | 8.0 | 19.3 | 0.00 | 0.00 | 0.00 | 65 | 1013.7 |
| 20260507160038 | 15 | 153 | 8.0 | 19.3 | 0.00 | 0.00 | 0.00 | 65 | 1013.7 |
| 20260507155517 | 15 | 154 | 9.7 | 19.3 | 0.00 | 0.00 | 0.00 | 65 | 1013.8 |
| 20260507155022 | 15 | 180 | 4.8 | 17.7 | 0.00 | 0.00 | 0.00 | 64 | 1013.8 |
| 20260507154541 | 15 | 175 | 8.0 | 20.9 | 0.00 | 0.00 | 0.00 | 63 | 1013.8 |
| 20260507154021 | 15 | 175 | 8.0 | 20.9 | 0.00 | 0.00 | 0.00 | 63 | 1013.8 |
| 20260507153525 | 15 | 156 | 9.7 | 19.3 | 0.00 | 0.00 | 0.00 | 63 | 1013.8 |
| 20260507153041 | 15 | 162 | 8.0 | 17.7 | 0.00 | 0.00 | 0.00 | 62 | 1013.8 |
| 20260507152523 | 16 | 160 | 3.2 | 24.1 | 0.00 | 0.00 | 0.00 | 63 | 1013.8 |
| 20260507152031 | 16 | 116 | 8.0 | 24.1 | 0.00 | 0.00 | 0.00 | 60 | 1013.9 |
| 20260507151542 | 16 | 110 | 6.4 | 19.3 | 0.00 | 0.00 | 0.00 | 62 | 1013.8 |
| 20260507151020 | 15 | 108 | 9.7 | 19.3 | 0.00 | 0.00 | 0.00 | 67 | 1013.7 |
| 20260507150523 | 15 | 139 | 9.7 | 19.3 | 0.00 | 0.00 | 0.00 | 69 | 1013.8 |
| 20260507150043 | 14 | 147 | 4.8 | 17.7 | 0.00 | 0.00 | 0.00 | 67 | 1013.8 |
| 20260507145520 | 14 | 122 | 4.8 | 14.5 | 0.00 | 0.00 | 0.00 | 67 | 1013.9 |
| 20260507145025 | 14 | 129 | 4.8 | 17.7 | 0.00 | 0.00 | 0.00 | 68 | 1014.0 |
| 20260507144541 | 14 | 135 | 6.4 | 17.7 | 0.00 | 0.00 | 0.00 | 65 | 1014.1 |
| 20260507144021 | 14 | 150 | 4.8 | 17.7 | 0.00 | 0.00 | 0.00 | 67 | 1014.0 |
| 20260507143521 | 14 | 147 | 4.8 | 14.5 | 0.00 | 0.00 | 0.00 | 66 | 1014.1 |
| 20260507143054 | 15 | 146 | 4.8 | 14.5 | 0.00 | 0.00 | 0.00 | 65 | 1014.2 |
| 20260507142518 | 15 | 144 | 6.4 | 14.5 | 0.00 | 0.00 | 0.00 | 64 | 1014.3 |
| 20260507142027 | 15 | 126 | 6.4 | 16.1 | 0.00 | 0.00 | 0.00 | 63 | 1014.3 |
| 20260507141550 | 15 | 146 | 6.4 | 20.9 | 0.00 | 0.00 | 0.00 | 62 | 1014.3 |
| 20260507141020 | 15 | 156 | 6.4 | 25.7 | 0.00 | 0.00 | 0.00 | 61 | 1014.4 |
| 20260507140521 | 15 | 155 | 11.3 | 25.7 | 0.00 | 0.00 | 0.00 | 61 | 1014.3 |
| 20260507140039 | 16 | 143 | 8.0 | 17.7 | 0.00 | 0.00 | 0.00 | 63 | 1014.4 |
| 20260507135519 | 16 | 143 | 8.0 | 24.1 | 0.00 | 0.00 | 0.00 | 62 | 1014.4 |
| 20260507135019 | 16 | 118 | 11.3 | 24.1 | 0.00 | 0.00 | 0.00 | 62 | 1014.4 |
| 20260507134536 | 16 | 133 | 8.0 | 22.5 | 0.00 | 0.00 | 0.00 | 61 | 1014.5 |
| 20260507134017 | 16 | 155 | 11.3 | 22.5 | 0.00 | 0.00 | 0.00 | 61 | 1014.4 |
| 20260507133521 | 17 | 162 | 8.0 | 22.5 | 0.00 | 0.00 | 0.00 | 61 | 1014.5 |
| 20260507133109 | 17 | 113 | 8.0 | 22.5 | 0.00 | 0.00 | 0.00 | 61 | 1014.5 |
| 20260507132523 | 17 | 133 | 6.4 | 20.9 | 0.00 | 0.00 | 0.00 | 66 | 1014.6 |
| 20260507132020 | 16 | 139 | 9.7 | 20.9 | 0.00 | 0.00 | 0.00 | 66 | 1014.7 |
| 20260507131545 | 16 | 216 | 9.7 | 20.9 | 0.00 | 0.00 | 0.00 | 68 | 1014.6 |
| 20260507131311 | 15 | 140 | 8.0 | 19.3 | 0.00 | 0.00 | 0.00 | 67 | 1014.6 |
| 20260507130521 | 15 | 133 | 4.8 | 24.1 | 0.00 | 0.00 | 0.00 | 68 | 1014.6 |
| 20260507130053 | 15 | 145 | 9.7 | 24.1 | 0.00 | 0.00 | 0.00 | 67 | 1014.6 |
| 20260507125517 | 15 | 155 | 9.7 | 19.3 | 0.00 | 0.00 | 0.00 | 66 | 1014.7 |
| 20260507125017 | 15 | 164 | 4.8 | 22.5 | 0.00 | 0.00 | 0.00 | 67 | 1014.6 |
| 20260507124547 | 15 | 165 | 11.3 | 25.7 | 0.00 | 0.00 | 0.00 | 67 | 1014.8 |
| 20260507124018 | 15 | 133 | 12.9 | 25.7 | 0.00 | 0.00 | 0.00 | 68 | 1014.8 |
| 20260507123522 | 15 | 180 | 11.3 | 19.3 | 0.00 | 0.00 | 0.00 | 66 | 1014.6 |
| 20260507123044 | 15 | 149 | 9.7 | 20.9 | 0.00 | 0.00 | 0.00 | 68 | 1014.7 |
| 20260507122518 | 15 | 180 | 6.4 | 22.5 | 0.00 | 0.00 | 0.00 | 70 | 1014.9 |
| 20260507122019 | 14 | 156 | 6.4 | 24.1 | 0.00 | 0.00 | 0.00 | 70 | 1014.9 |
| 20260507121537 | 14 | 136 | 8.0 | 24.1 | 0.00 | 0.00 | 0.00 | 68 | 1014.9 |
| 20260507121047 | 14 | 145 | 11.3 | 24.1 | 0.00 | 0.00 | 0.00 | 67 | 1015.0 |
| 20260507120521 | 14 | 139 | 8.0 | 22.5 | 0.00 | 0.00 | 0.00 | 69 | 1015.0 |
| 20260507120041 | 13 | 212 | 9.7 | 22.5 | 0.00 | 0.00 | 0.00 | 67 | 1015.2 |
| 20260507115521 | 13 | 206 | 8.0 | 19.3 | 0.00 | 0.00 | 0.00 | 70 | 1015.2 |
| 20260507115022 | 13 | 197 | 8.0 | 17.7 | 0.00 | 0.00 | 0.00 | 68 | 1015.3 |
| 20260507114555 | 13 | 122 | 8.0 | 19.3 | 0.00 | 0.00 | 0.00 | 72 | 1015.3 |
| 20260507114021 | 13 | 142 | 6.4 | 19.3 | 0.00 | 0.00 | 0.00 | 70 | 1015.3 |
| 20260507113519 | 13 | 189 | 8.0 | 17.7 | 0.00 | 0.00 | 0.00 | 70 | 1015.3 |
| 20260507113041 | 13 | 151 | 6.4 | 19.3 | 0.00 | 0.00 | 0.00 | 72 | 1015.4 |
| 20260507112518 | 13 | 149 | 9.7 | 19.3 | 0.00 | 0.00 | 0.00 | 72 | 1015.3 |
| 20260507112022 | 13 | 125 | 8.0 | 22.5 | 0.00 | 0.00 | 0.00 | 73 | 1015.3 |
| 20260507111539 | 13 | 127 | 11.3 | 22.5 | 0.00 | 0.00 | 0.00 | 74 | 1015.3 |
| 20260507111021 | 12 | 120 | 9.7 | 19.3 | 0.00 | 0.00 | 0.00 | 75 | 1015.5 |
| 20260507110521 | 12 | 136 | 9.7 | 19.3 | 0.00 | 0.00 | 0.00 | 76 | 1015.4 |
| 20260507110042 | 12 | 160 | 8.0 | 20.9 | 0.00 | 0.00 | 0.00 | 75 | 1015.6 |
| 20260507105521 | 12 | 149 | 8.0 | 20.9 | 0.00 | 0.00 | 0.00 | 76 | 1015.6 |
| 20260507105021 | 12 | 139 | 8.0 | 19.3 | 0.00 | 0.00 | 0.00 | 77 | 1015.7 |
| 20260507104541 | 12 | 147 | 8.0 | 19.3 | 0.00 | 0.00 | 0.00 | 78 | 1015.7 |
| 20260507104021 | 11 | 126 | 4.8 | 17.7 | 0.00 | 0.00 | 0.00 | 80 | 1015.7 |
| 20260507103518 | 11 | 121 | 8.0 | 17.7 | 0.00 | 0.00 | 0.00 | 81 | 1015.8 |
| 20260507103048 | 11 | 141 | 8.0 | 17.7 | 0.00 | 0.00 | 0.00 | 80 | 1015.9 |
| 20260507102520 | 11 | 159 | 4.8 | 19.3 | 0.00 | 0.00 | 0.00 | 81 | 1015.8 |
| 20260507102018 | 10 | 131 | 8.0 | 19.3 | 0.00 | 0.00 | 0.00 | 82 | 1015.8 |
| 20260507101540 | 10 | 125 | 6.4 | 17.7 | 0.00 | 0.00 | 0.00 | 83 | 1015.8 |
| 20260507101019 | 10 | 113 | 11.3 | 17.7 | 0.00 | 0.00 | 0.00 | 83 | 1015.8 |
| 20260507100518 | 10 | 107 | 8.0 | 14.5 | 0.00 | 0.00 | 0.00 | 84 | 1015.8 |
| 20260507100039 | 10 | 119 | 8.0 | 17.7 | 0.00 | 0.00 | 0.00 | 83 | 1015.8 |
| 20260507095520 | 10 | 117 | 3.2 | 17.7 | 0.00 | 0.00 | 0.00 | 84 | 1015.8 |
| 20260507095018 | 10 | 137 | 4.8 | 16.1 | 0.00 | 0.00 | 0.00 | 85 | 1015.9 |
| 20260507094542 | 9 | 124 | 6.4 | 16.1 | 0.00 | 0.00 | 0.00 | 85 | 1015.9 |
| 20260507094025 | 9 | 131 | 3.2 | 16.1 | 0.00 | 0.00 | 0.00 | 86 | 1015.8 |
| 20260507093519 | 9 | 143 | 6.4 | 17.7 | 0.00 | 0.00 | 0.00 | 86 | 1015.9 |
| 20260507093041 | 9 | 127 | 6.4 | 17.7 | 0.00 | 0.00 | 0.00 | 86 | 1015.8 |
| 20260507092521 | 8 | 114 | 8.0 | 17.7 | 0.00 | 0.00 | 0.00 | 86 | 1015.8 |
| 20260507092017 | 8 | 122 | 8.0 | 17.7 | 0.00 | 0.00 | 0.00 | 87 | 1015.8 |
| 20260507091540 | 8 | 118 | 8.0 | 16.1 | 0.00 | 0.00 | 0.00 | 87 | 1015.8 |